Time,TemperatureF,DewpointF,PressureIn,WindDirection,WindDirectionDegrees,WindSpeedMPH,WindSpeedGustMPH,Humidity,HourlyPrecipIn,Conditions,Clouds,dailyrainin,SoftwareType,DateUTC
2015-07-30 00:00:00,76.3,75.1,30.00,SW,214,5.0,5.0,96,0.00,,---,0.01,VWS V15.00,2015-07-30 04:00:00,
2015-07-30 00:15:00,76.2,74.7,30.00,SW,219,1.0,5.0,95,0.00,,---,0.00,VWS V15.00,2015-07-30 04:15:00,
2015-07-30 00:30:00,76.3,75.1,30.00,SW,225,2.0,5.0,96,0.00,,---,0.00,VWS V15.00,2015-07-30 04:30:00,
2015-07-30 00:45:00,76.4,75.2,30.00,SW,225,1.0,4.0,96,0.00,,---,0.00,VWS V15.00,2015-07-30 04:45:00,
2015-07-30 01:00:00,76.5,75.3,29.99,SW,228,2.0,3.0,96,0.00,,---,0.00,VWS V15.00,2015-07-30 05:00:00,
2015-07-30 01:15:00,76.5,75.3,29.99,SW,215,1.0,5.0,96,0.00,,---,0.00,VWS V15.00,2015-07-30 05:15:00,
2015-07-30 01:30:00,76.5,75.3,29.98,South,187,1.0,6.0,96,0.00,,---,0.00,VWS V15.00,2015-07-30 05:30:00,
2015-07-30 01:45:00,76.5,75.3,29.98,SW,217,1.0,4.0,96,0.00,,---,0.00,VWS V15.00,2015-07-30 05:45:00,
2015-07-30 02:00:00,76.5,75.3,29.98,WSW,238,1.0,4.0,96,0.00,,---,0.00,VWS V15.00,2015-07-30 06:00:00,
2015-07-30 02:15:00,76.5,75.3,29.98,SW,226,2.0,4.0,96,0.00,,---,0.00,VWS V15.00,2015-07-30 06:15:00,
2015-07-30 02:30:00,76.5,75.0,29.98,SSW,211,1.0,4.0,95,0.00,,---,0.00,VWS V15.00,2015-07-30 06:30:00,
2015-07-30 02:45:00,76.6,75.1,29.98,SW,216,3.0,5.0,95,0.00,,---,0.00,VWS V15.00,2015-07-30 06:45:00,
2015-07-30 03:00:00,76.6,75.1,29.98,SW,222,3.0,6.0,95,0.00,,---,0.00,VWS V15.00,2015-07-30 07:00:00,
2015-07-30 03:15:00,76.6,75.1,29.98,WSW,242,2.0,5.0,95,0.00,,---,0.00,VWS V15.00,2015-07-30 07:15:00,
2015-07-30 03:30:00,76.6,75.1,29.97,SW,219,0.0,5.0,95,0.00,,---,0.00,VWS V15.00,2015-07-30 07:30:00,
2015-07-30 03:45:00,76.6,75.1,29.97,SW,224,2.0,5.0,95,0.00,,---,0.00,VWS V15.00,2015-07-30 07:45:00,
2015-07-30 04:00:00,76.6,75.1,29.97,WNW,294,1.0,4.0,95,0.00,,---,0.00,VWS V15.00,2015-07-30 08:00:00,
2015-07-30 04:15:00,76.6,75.1,29.97,SW,230,5.0,5.0,95,0.00,,---,0.00,VWS V15.00,2015-07-30 08:15:00,
2015-07-30 04:30:00,76.6,75.1,29.97,SW,234,1.0,5.0,95,0.00,,---,0.00,VWS V15.00,2015-07-30 08:30:00,
2015-07-30 04:45:00,76.6,74.8,29.97,SW,231,2.0,4.0,94,0.00,,---,0.00,VWS V15.00,2015-07-30 08:45:00,
2015-07-30 05:00:00,76.6,74.8,29.97,SW,223,0.0,4.0,94,0.00,,---,0.00,VWS V15.00,2015-07-30 09:00:00,
2015-07-30 05:15:00,76.5,75.0,29.97,SW,232,2.0,3.0,95,0.00,,---,0.00,VWS V15.00,2015-07-30 09:15:00,
2015-07-30 05:30:00,76.3,74.8,29.97,SW,232,3.0,3.0,95,0.00,,---,0.00,VWS V15.00,2015-07-30 09:30:00,
2015-07-30 05:45:00,76.2,74.7,29.97,SW,233,0.0,3.0,95,0.00,,---,0.00,VWS V15.00,2015-07-30 09:45:00,
2015-07-30 06:00:00,76.1,74.6,29.97,SW,233,2.0,2.0,95,0.00,,---,0.00,VWS V15.00,2015-07-30 10:00:00,
2015-07-30 06:15:00,76.0,74.5,29.97,SW,233,0.0,2.0,95,0.00,,---,0.00,VWS V15.00,2015-07-30 10:15:00,
2015-07-30 06:30:00,75.9,74.7,29.97,SW,226,1.0,3.0,96,0.00,,---,0.00,VWS V15.00,2015-07-30 10:30:00,
2015-07-30 06:45:00,75.9,74.7,29.98,West,269,1.0,3.0,96,0.00,,---,0.00,VWS V15.00,2015-07-30 10:45:00,
2015-07-30 07:00:00,75.9,74.7,29.98,West,269,1.0,2.0,96,0.00,,---,0.00,VWS V15.00,2015-07-30 11:00:00,
2015-07-30 07:15:00,76.0,74.8,29.99,SW,224,0.0,3.0,96,0.00,,---,0.00,VWS V15.00,2015-07-30 11:15:00,
2015-07-30 07:30:00,76.3,75.1,29.99,WSW,240,0.0,4.0,96,0.00,,---,0.00,VWS V15.00,2015-07-30 11:30:00,
2015-07-30 07:45:00,76.8,75.6,29.99,SW,220,2.0,5.0,96,0.00,,---,0.00,VWS V15.00,2015-07-30 11:45:00,
2015-07-30 08:00:00,77.5,76.0,29.99,SSW,200,4.0,5.0,95,0.00,,---,0.00,VWS V15.00,2015-07-30 12:00:00,
2015-07-30 08:15:00,78.5,76.3,30.00,SW,230,3.0,6.0,93,0.00,,---,0.00,VWS V15.00,2015-07-30 12:15:00,
2015-07-30 08:30:00,79.8,76.9,30.01,SW,234,5.0,6.0,91,0.00,,---,0.00,VWS V15.00,2015-07-30 12:30:00,
2015-07-30 08:45:00,81.1,77.6,30.01,SW,222,4.0,7.0,89,0.00,,---,0.00,VWS V15.00,2015-07-30 12:45:00,
2015-07-30 09:00:00,83.0,78.0,30.02,WSW,254,5.0,11.0,85,0.00,,---,0.00,VWS V15.00,2015-07-30 13:00:00,
2015-07-30 09:15:00,83.0,78.0,30.01,West,266,3.0,8.0,85,0.00,,---,0.00,VWS V15.00,2015-07-30 13:15:00,
2015-07-30 09:30:00,83.6,77.9,30.01,West,277,5.0,7.0,83,0.00,,---,0.00,VWS V15.00,2015-07-30 13:30:00,
2015-07-30 09:45:00,84.2,78.1,30.01,WNW,290,4.0,10.0,82,0.00,,---,0.00,VWS V15.00,2015-07-30 13:45:00,
2015-07-30 10:00:00,84.9,77.7,30.02,SW,232,4.0,11.0,79,0.00,,---,0.00,VWS V15.00,2015-07-30 14:00:00,
2015-07-30 10:15:00,86.0,77.9,30.02,SW,226,4.0,11.0,77,0.00,,---,0.00,VWS V15.00,2015-07-30 14:15:00,
2015-07-30 10:30:00,86.4,78.3,30.02,South,182,4.0,13.0,77,0.00,,---,0.00,VWS V15.00,2015-07-30 14:30:00,
2015-07-30 10:45:00,87.5,78.2,30.01,SSW,203,1.0,11.0,74,0.00,,---,0.00,VWS V15.00,2015-07-30 14:45:00,
2015-07-30 11:00:00,88.0,79.5,30.01,WSW,252,3.0,11.0,76,0.00,,---,0.00,VWS V15.00,2015-07-30 15:00:00,
2015-07-30 11:15:00,88.5,77.5,30.01,West,268,10.0,12.0,70,0.00,,---,0.00,VWS V15.00,2015-07-30 15:15:00,
2015-07-30 11:30:00,88.9,77.8,30.01,West,279,3.0,12.0,70,0.00,,---,0.00,VWS V15.00,2015-07-30 15:30:00,
2015-07-30 11:45:00,90.6,77.2,30.01,WNW,283,5.0,10.0,65,0.00,,---,0.00,VWS V15.00,2015-07-30 15:45:00,
2015-07-30 12:00:00,91.8,77.9,30.01,WSW,254,4.0,11.0,64,0.00,,---,0.00,VWS V15.00,2015-07-30 16:00:00,
2015-07-30 12:15:00,91.4,78.9,30.01,South,187,4.0,10.0,67,0.00,,---,0.00,VWS V15.00,2015-07-30 16:15:00,
2015-07-30 12:30:00,91.6,77.2,30.01,NW,313,5.0,12.0,63,0.00,,---,0.00,VWS V15.00,2015-07-30 16:30:00,
2015-07-30 12:45:00,92.6,77.7,30.01,SW,214,1.0,11.0,62,0.00,,---,0.00,VWS V15.00,2015-07-30 16:45:00,
2015-07-30 13:15:00,94.2,75.6,30.00,West,273,4.0,10.0,55,0.00,,---,0.00,VWS V15.00,2015-07-30 17:15:00,
2015-07-30 13:30:00,92.9,77.0,29.99,SSW,212,5.0,9.0,60,0.00,,---,0.00,VWS V15.00,2015-07-30 17:30:00,
2015-07-30 13:45:00,92.5,76.1,29.99,WSW,252,7.0,10.0,59,0.00,,---,0.00,VWS V15.00,2015-07-30 17:45:00,
2015-07-30 14:00:00,90.5,81.1,29.99,NW,322,2.0,7.0,74,0.01,,---,0.01,VWS V15.00,2015-07-30 18:00:00,
2015-07-30 14:15:00,87.8,80.5,29.98,NNW,336,3.0,9.0,79,0.02,,---,0.02,VWS V15.00,2015-07-30 18:15:00,
2015-07-30 14:30:00,86.1,81.4,29.97,NNE,15,2.0,4.0,86,0.04,,---,0.04,VWS V15.00,2015-07-30 18:30:00,
2015-07-30 14:45:00,88.5,81.5,29.97,North,355,0.0,3.0,80,0.04,,---,0.04,VWS V15.00,2015-07-30 18:45:00,
2015-07-30 15:00:00,90.4,76.6,29.96,SSW,192,2.0,10.0,64,0.04,,---,0.04,VWS V15.00,2015-07-30 19:00:00,
2015-07-30 15:15:00,89.5,78.0,29.96,SSW,207,4.0,10.0,69,0.03,,---,0.04,VWS V15.00,2015-07-30 19:15:00,
2015-07-30 15:30:00,89.8,77.8,29.95,SW,231,2.0,10.0,68,0.02,,---,0.04,VWS V15.00,2015-07-30 19:30:00,
2015-07-30 15:45:00,90.5,78.5,29.95,South,190,4.0,14.0,68,0.00,,---,0.04,VWS V15.00,2015-07-30 19:45:00,
2015-07-30 16:15:00,89.4,77.0,29.94,SSE,165,3.0,12.0,67,0.00,,---,0.04,VWS V15.00,2015-07-30 20:15:00,
2015-07-30 16:30:00,90.1,77.2,29.94,SSW,192,7.0,13.0,66,0.00,,---,0.04,VWS V15.00,2015-07-30 20:30:00,
2015-07-30 16:45:00,89.5,75.7,29.94,SSW,206,8.0,13.0,64,0.00,,---,0.04,VWS V15.00,2015-07-30 20:45:00,
2015-07-30 17:00:00,87.9,72.3,29.94,SW,220,4.0,13.0,60,0.00,,---,0.04,VWS V15.00,2015-07-30 21:00:00,
2015-07-30 17:15:00,87.0,74.3,29.95,SW,225,4.0,11.0,66,0.01,,---,0.05,VWS V15.00,2015-07-30 21:15:00,
2015-07-30 17:30:00,86.4,74.6,29.96,South,188,1.0,7.0,68,0.01,,---,0.05,VWS V15.00,2015-07-30 21:30:00,
2015-07-30 17:45:00,85.8,74.0,29.95,SW,215,1.0,7.0,68,0.01,,---,0.05,VWS V15.00,2015-07-30 21:45:00,
2015-07-30 18:00:00,85.4,74.5,29.96,SW,223,2.0,9.0,70,0.01,,---,0.05,VWS V15.00,2015-07-30 22:00:00,
2015-07-30 18:15:00,85.3,74.4,29.97,SSW,213,2.0,5.0,70,0.01,,---,0.05,VWS V15.00,2015-07-30 22:15:00,
2015-07-30 18:30:00,83.5,71.8,29.99,WNW,284,14.0,22.0,68,0.00,,---,0.05,VWS V15.00,2015-07-30 22:30:00,
2015-07-30 18:45:00,77.3,69.9,29.98,NW,324,1.0,18.0,78,0.00,,---,0.05,VWS V15.00,2015-07-30 22:45:00,
2015-07-30 19:00:00,75.4,69.9,30.00,North,360,6.0,15.0,83,0.00,,---,0.05,VWS V15.00,2015-07-30 23:00:00,
2015-07-30 19:15:00,74.8,71.0,30.00,North,355,5.0,11.0,88,0.00,,---,0.05,VWS V15.00,2015-07-30 23:15:00,
2015-07-30 19:30:00,74.7,71.6,29.99,NNE,24,2.0,6.0,90,0.00,,---,0.05,VWS V15.00,2015-07-30 23:30:00,
2015-07-30 19:45:00,74.7,72.2,29.99,NNE,24,2.0,5.0,92,0.01,,---,0.06,VWS V15.00,2015-07-30 23:45:00,
2015-07-30 20:00:00,74.6,72.4,29.98,NNE,24,0.0,4.0,93,0.01,,---,0.06,VWS V15.00,2015-07-31 00:00:00,
2015-07-30 20:15:00,74.5,72.7,29.98,NNE,24,0.0,2.0,94,0.01,,---,0.06,VWS V15.00,2015-07-31 00:15:00,
2015-07-30 20:30:00,74.3,72.5,29.97,NNE,24,0.0,1.0,94,0.01,,---,0.06,VWS V15.00,2015-07-31 00:30:00,
2015-07-30 20:45:00,74.4,72.9,29.97,NNE,24,0.0,2.0,95,0.02,,---,0.07,VWS V15.00,2015-07-31 00:45:00,